Regional Weather Roundup
Issued by NWS

Home | Current Version | Previous Version | Text Only | Print | Product List | Glossary On
Versions: 1 2 3 4 5 6 7 8 9 10 11 12 13 14 15 16 17 18 19 20 21 22 23 24 25 26 27 28 29 30 31 32 33 34 35 36 37 38 39 40 41 42 43 44 45 46 47 48 49 50
000
ASUS45 KSLC 161610
RWRUT

UTAH REGIONAL WEATHER ROUNDUP
NATIONAL WEATHER SERVICE SALT LAKE CITY UT
1000 AM MDT TUE SEP 16 2014

UTZ001>011-023>025-161700-

NORTHERN UTAH

CITY           SKY/WX    TMP DP  RH WIND       PRES   REMARKS
HILL AFB       PTSUNNY   67  39  36 E14       30.16R
LOGAN          MOSUNNY   63  44  50 N8        30.15R
OGDEN          PTSUNNY   68  41  37 SE10      30.13R
PROVO AIRPORT  SUNNY     68  45  42 CALM      30.17R
SALT LAKE CITY PTSUNNY   77  41  27 E6        30.12R
VERNAL         SUNNY     65  43  44 SE3       30.25R
WENDOVER       SUNNY     72  36  26 E6        30.10R
HEBER CITY     SUNNY     57  43  58 CALM      30.25S
WEST JORDAN    SUNNY     75  39  27 E5        30.15R

$$

UTZ012>022-026-027-161700-

SOUTHERN UTAH

CITY           SKY/WX    TMP DP  RH WIND       PRES   REMARKS
BRYCE CANYON   SUNNY     65  43  44 SE10      30.39S
CEDAR CITY     SUNNY     69  44  40 CALM      30.21R
MILFORD        SUNNY     70  44  39 S10       30.16S
MOAB/CYNLANDS  SUNNY     77  44  30 E7        30.18R
PRICE          SUNNY     72  36  26 SE6       30.27S
ST GEORGE      SUNNY     75  43  31 CALM      30.07S
KANAB            N/A     77  45  31 NW5       30.22S

$$

REGIONAL REPORTS     COLORADO/ARIZONA

CITY           SKY/WX    TMP DP  RH WIND       PRES   REMARKS
CRAIG, CO      SUNNY     65  43  44 E7        30.30F
GRAND JUNCTION SUNNY     71  42  35 SE7       30.23S
RIFLE          SUNNY     60  41  49 CALM      30.30S
MONTROSE       SUNNY     71  43  36 CALM      30.30F
CORTEZ         SUNNY     70  47  43 CALM      30.32S
PAGE, AZ       SUNNY     79  50  36 VRB5      30.17S
GRAND CANYON   SUNNY     71  48  43 CALM      30.32R
KINGMAN        SUNNY     81  59  47 SW9       30.08R
FLAGSTAFF      PTSUNNY   66  51  58 W7        30.34S

$$

REGIONAL REPORTS    NEVADA/IDAHO/WYOMING

CITY           SKY/WX    TMP DP  RH WIND       PRES   REMARKS
LAS VEGAS, NV  SUNNY     88  46  23 S3        29.92R
ELY            SUNNY     70  40  33 S8        30.24S
ELKO           SUNNY     64  30  27 VRB3      30.14S
POCATELLO, ID  PTSUNNY   64  41  42 W15G30    30.14R
BURLEY         PTSUNNY   63  46  54 E3        30.06F
EVANSTON, WY   MOSUNNY   67  35  30 SW6       30.31S
ROCK SPRINGS   SUNNY     63  34  33 CALM      30.30S

$$



USA.gov is the U.S. government's official web portal to all federal, state and local government web resources and services.